Location: Haieshausen
(51.8387°N, 9.9720°E)
Time: 03:37:41
(UTC+00:00)

Meteor 1-11 Rocket - Pass Details

Date: 14 July 2020
Orbit: 832 x 915 km, 81.2° (Epoch: 10 August)

Event Time Altitude Azimuth Distance (km) Brightness Sun altitude
Exits shadow 02:04:16 10° 201° (SSW) 2,467 5.5 -8.8°
Reaches altitude 10° 02:04:20 10° 201° (SSW) 2,441 5.5 -8.8°
Maximum altitude 02:09:50 70° 285° (WNW) 887 3.8 -8.3°
Drops below altitude 10° 02:15:23 10° 9° (N) 2,458 7.2 -7.8°
Sets 02:17:50 0° 12° (NNE) 3,402 8.1 -7.5°
